"Pseudo-MPEC" for P11C80P

Created 2022 Nov 25 8:22:18 UT using Find_Orb

Click here for an explanation of pseudo-MPECs

 
 Astrometry: 
     P11C80P 1C2022 11 18.21562803 40 28.448+36 55 54.05   ~BONM 21.03GVNEOCPG96
     P11C80P 1C2022 11 18.22145303 40 27.952+36 55 41.59   ~BONM 20.88GVNEOCPG96
     P11C80P 1C2022 11 18.22727903 40 27.584+36 55 29.28   ~BONM 22.05GVNEOCPG96
     P11C80P 1C2022 11 18.23310903 40 27.116+36 55 15.46   ~BONM 21.26GVNEOCPG96
     P11C80P* C2022 11 24RI3yal9U;AstrometryM3BYCredacted;(B$clickXa*s+=X_Zm$F51
     P11C80P  C2022 11 24;?!mChl*5,9P3rlIhN3P2,5O?tdfx%,SLOB?3W%a8-Y^V3L^Vq-kF51
     P11C80P  C2022 11 24?dherel=CRKpfor[min$nexplanationue`(xD8epwf'HMLHSlgyF51
     P11C80P KC2022 11 25.19716403 32 41.050+32 14 00.10   ~BP5M       VNEOCPI52
     P11C80P KC2022 11 25.20007803 32 40.790+32 13 52.30   ~BP5M 21.80GVNEOCPI52

Station data:
(F51) Pan-STARRS 1, Haleakala  (N20.707234 W156.255910)  US/Hawaii.
   Observers J. Bulger, T. Lowe, A. Schultz, M. Willman. Measurers K.
   Chambers, S. Chastel, T. de Boer, L. Denneau, J. Fairlamb, H. Flewelling,
   M. Huber, C.-C. Lin, E. Magnier, Y. Ramanjooloo, R. Wainscoat, R. Weryk.
   1.8-m Ritchey-Chrétien + CCD.
(G96) Mt. Lemmon Survey  (N32.442751 W110.788720)  US/Arizona.  Observers T.
   A. Pruyne, B. M. Africano, E. J. Christensen, G. A. Farneth, D. C. Fuls,
   A. R. Gibbs, A. D. Grauer, H. Gröller, J. A. Johnson, R. A. Kowalski, S.
   M. Larson, G. J. Leonard, D. Rankin, R. L. Seaman, F. C. Shelly, K. W.
   Wierzchoś. 1.5-m reflector + 10K CCD.
(I52) Steward Observatory, Mt. Lemmon Station  (N32.442544 W110.788920)
   US/Arizona.  Observers T. A. Pruyne, B. M. Africano, E. J. Christensen, G.
   A. Farneth, D. C. Fuls, A. R. Gibbs, A. D. Grauer, H. Gröller, J. A.
   Johnson, R. A. Kowalski, S. M. Larson, G. J. Leonard, D. Rankin, R. L.
   Seaman, F. C. Shelly, K. W. Wierzchoś. 1.0-m reflector + CCD.

Orbital elements:  P11C80P
   Perihelion 2023 Feb 18.36069 +/- 0.0714 TT =  8:39:23 (JD 2459993.86069)
Epoch 2022 Nov 25.0 TT = JDT 2459908.5   Earth MOID: 0.4627   Ma: 0.0021
M 338.04048903 +/- 0.8              (J2000 ecliptic)          AutoNEOCP
n   0.25725555 +/- 0.00976          Peri.  227.84057 +/- 0.11
a   2.44845923 +/- 0.0619           Node   249.65238 +/- 0.10
e   0.4476171 +/- 0.0122            Incl.   29.56343 +/- 0.49
P   3.83                   H 21.0   G  0.15   U  9.6
q 1.35248678 +/- 0.00474    Q 3.54443168 +/- 0.12
From 9 observations 2022 Nov. 18-25; mean residual 0".30
Residuals in arcseconds: 
221118 G96  .55+  .06+    221118 G96  .37-  .72-    221124 F51  .03+  .03-    
221118 G96  .39-  .19+    221124 F51  .01-  .03-    221125 I52  .33+  .07+    
221118 G96  .21+  .48+    221124 F51  .02-  .06+    221125 I52  .34-  .07-    

Ephemerides (geocentric):
Date (UTC) HH   RA             Dec           delta  r     elong  mag " sig PA
---- --------  ------------   ------------  ------ ------ -----  --- --------
2022 11 25 08  03 32 31.590   +32 07 59.47  .60151 1.5787 166.7 21.4 .241 119
2022 11 25 09  03 32 28.852   +32 06 08.67  .60131 1.5785 166.7 21.4 .259 119
2022 11 25 10  03 32 26.115   +32 04 17.77  .60111 1.5783 166.8 21.4 .277 118
2022 11 25 11  03 32 23.380   +32 02 26.76  .60091 1.5782 166.8 21.4 .296 118
2022 11 25 12  03 32 20.646   +32 00 35.65  .60071 1.5780 166.8 21.4 .315 117
2022 11 25 13  03 32 17.913   +31 58 44.44  .60052 1.5778 166.8 21.4 .334 117
2022 11 25 14  03 32 15.182   +31 56 53.12  .60032 1.5776 166.8 21.4 .354 116
2022 11 25 15  03 32 12.452   +31 55 01.71  .60012 1.5774 166.8 21.4 .373 116
2022 11 25 16  03 32 09.724   +31 53 10.18  .59993 1.5772 166.8 21.4 .393 116
2022 11 25 17  03 32 06.997   +31 51 18.56  .59973 1.5770 166.8 21.4 .413 115
2022 11 25 18  03 32 04.272   +31 49 26.83  .59954 1.5768 166.8 21.4 .434 115
2022 11 25 19  03 32 01.548   +31 47 35.01  .59934 1.5766 166.8 21.4 .454 115
2022 11 25 20  03 31 58.826   +31 45 43.08  .59915 1.5764 166.8 21.4 .475 114
2022 11 25 21  03 31 56.105   +31 43 51.05  .59895 1.5762 166.8 21.4 .497 114
2022 11 25 22  03 31 53.386   +31 41 58.92  .59876 1.5760 166.8 21.4 .518 113
2022 11 25 23  03 31 50.668   +31 40 06.68  .59857 1.5758 166.8 21.4 .540 113
2022 11 26 00  03 31 47.952   +31 38 14.35  .59838 1.5756 166.8 21.4 .562 113
2022 11 26 01  03 31 45.238   +31 36 21.92  .59818 1.5755 166.8 21.4 .584 112
2022 11 26 02  03 31 42.525   +31 34 29.38  .59799 1.5753 166.8 21.4 .607 112
2022 11 26 03  03 31 39.814   +31 32 36.75  .59780 1.5751 166.8 21.4 .629 112
2022 11 26 04  03 31 37.104   +31 30 44.01  .59761 1.5749 166.8 21.4 .652 112
2022 11 26 05  03 31 34.396   +31 28 51.18  .59742 1.5747 166.8 21.4 .676 111
2022 11 26 06  03 31 31.690   +31 26 58.24  .59723 1.5745 166.8 21.4 .700 111
2022 11 26 07  03 31 28.985   +31 25 05.21  .59704 1.5743 166.8 21.4 .723 111
2022 11 26 08  03 31 26.283   +31 23 12.08  .59686 1.5741 166.8 21.4 .748 110
2022 11 26 09  03 31 23.581   +31 21 18.85  .59667 1.5739 166.9 21.4 .772 110
2022 11 26 10  03 31 20.882   +31 19 25.52  .59648 1.5737 166.9 21.4 .797 110
2022 11 26 11  03 31 18.184   +31 17 32.09  .59630 1.5735 166.9 21.4 .822 109
2022 11 26 12  03 31 15.488   +31 15 38.56  .59611 1.5733 166.9 21.4 .847 109
2022 11 26 13  03 31 12.794   +31 13 44.93  .59592 1.5731 166.9 21.4 .873 109
2022 11 26 14  03 31 10.102   +31 11 51.21  .59574 1.5730 166.8 21.4 .899 108
2022 11 26 15  03 31 07.411   +31 09 57.39  .59555 1.5728 166.8 21.4 .925 108
2022 11 26 16  03 31 04.722   +31 08 03.47  .59537 1.5726 166.8 21.4 .952 108
2022 11 26 17  03 31 02.035   +31 06 09.46  .59519 1.5724 166.8 21.4 .979 108
2022 11 26 18  03 30 59.350   +31 04 15.35  .59500 1.5722 166.8 21.4 1.01 107
2022 11 26 19  03 30 56.666   +31 02 21.14  .59482 1.5720 166.8 21.4 1.03 107
2022 11 26 20  03 30 53.985   +31 00 26.83  .59464 1.5718 166.8 21.4 1.06 107
2022 11 26 21  03 30 51.305   +30 58 32.43  .59446 1.5716 166.8 21.4 1.09 106
2022 11 26 22  03 30 48.627   +30 56 37.94  .59428 1.5714 166.8 21.4 1.12 106
2022 11 26 23  03 30 45.951   +30 54 43.34  .59410 1.5712 166.8 21.4 1.15 106
2022 11 27 00  03 30 43.277   +30 52 48.65  .59392 1.5710 166.8 21.4 1.18 106
2022 11 27 01  03 30 40.605   +30 50 53.87  .59374 1.5708 166.8 21.4 1.20 105
2022 11 27 02  03 30 37.935   +30 48 58.99  .59356 1.5707 166.8 21.4 1.23 105
2022 11 27 03  03 30 35.267   +30 47 04.02  .59338 1.5705 166.8 21.4 1.26 105
2022 11 27 04  03 30 32.601   +30 45 08.95  .59320 1.5703 166.8 21.4 1.30 105
2022 11 27 05  03 30 29.936   +30 43 13.79  .59302 1.5701 166.8 21.4 1.33 104
2022 11 27 06  03 30 27.274   +30 41 18.53  .59285 1.5699 166.8 21.4 1.36 104
2022 11 27 07  03 30 24.613   +30 39 23.18  .59267 1.5697 166.8 21.4 1.39 104